Starlink 2700

operational
NORAD ID: 48431 Int'l Des: 2021-040 Owner: SPXS Country: US Constellation: starlink
LEOCIRCULARSTARLINK_TYPE

Über Starlink 2700

Beschreibung wird geladen...

Live-Position

3D-Globus wird geladen...

Nächste Überflüge

Höhenverlauf

Altitude vs Time

uPlot chart will show altitude changes over time

Zweizeiliger Elementsatz

1 48431U 21040D 26036.09588586 .00000095 00000-0 25262-4 0 9998
2 48431 53.0543 297.9395 0001600 92.9844 267.1328 15.06392158262132
Epoch: 5. Feb. 2026 • Age: 7 hours

Aktueller Status

Höhe 555.1 km
Geschwindigkeit 7.58 km/s
Subsatellitenpunkt -25.32°S, 142.38°W
Startdatum 9. Mai 2021
Alter 4.7 years
Typ internet

Technische Details

Klassifizierung Payload
Masse 260.00 kg
Trockenmasse 248.00 kg
Gesamtmasse 260.00 kg
Länge 0.20 m
Durchmesser 2.80 m
Spannweite 9.00 m
Form Box + pan
Hersteller SPXS
Bus-Typ Starlink
Phasenstatus In Orbit
Besitzer/Staat SPXS/US

Große Konstellationen

Loading constellations...